Новости | Об игре | Форум
15:21, 2288 онлайн
Форумы » Торговля high-tech предметами

Не забывайте про существование Доски Объявлений.

«334533463347334833493350335133523353»

Тема Дата # Автор Последнее сообщение
 » Быстрый обмен Гб и EUN по рыночному курсу
[Z] Продам Сигару 4/18 15/04/2019  1  ENRIKO15/04, 13:13, от ENRIKO
[Z] Продам Kinetics CPW 15/04/2019  3  *GANJA*GIRL*15/04, 13:07, от *GANJA*GIRL*
Z/G Куплю EUN-лом/счет-до 117к.новые до 120к-внутри.стакан 1.070кк 15/04/2019  1  asawa115/04, 12:56, от asawa1
[G] Куплю еун от 115 и выше, смотрите внутри 15/04/2019  1  cleverus15/04, 12:51, от cleverus
[Z] продам 31 ен и 18 ен по 120к + эконом 15/04/2019  1  rus5815/04, 12:46, от rus58
[Z,G] Куплю до 30 еун на счет по 118к 15/04/2019  2  Vit90315/04, 12:43, тема закрыта
[G,Z] Куплю много EUN по 110к 15/04/2019  1  Shrike15/04, 12:42, от Shrike
[G] продам/обновлю любой арт по 117к/еун 15/04/2019  1  *apofis*15/04, 12:31, от *apofis*
[G] Срочно куплю много еун на счёт по 115к 15/04/2019  1  Буду ПП15/04, 12:31, от Буду ПП
[G] Продам 10 еун на счет 118 15/04/2019  2  sardinka15/04, 12:26, тема закрыта
[G, Z] Куплю еун по 124к 15/04/2019  1  (веснушка)15/04, 12:01, от (веснушка)
[Z] обновлю на 4 еуна по 120к 15/04/2019  1  Срыв15/04, 11:48, от Срыв
[G] Обновлю/продам новые арты по 116к за EUN 15/04/2019  1  Marhatter15/04, 11:45, от Marhatter
[G] продам 10 еун на счет 15/04/2019  1  1jz-gde-600pts15/04, 11:41, от 1jz-gde-600pts
[G] Обновлю стакан 90к. Куплю брелки, стаканы по 1100к 15/04/2019  2  theprofessor15/04, 11:28, от theprofessor
[G] продам 64 eun по 117к 15/04/2019  2  Garick8815/04, 11:20, от Garick88
[G] Куплю 80 еун по 115к 15/04/2019  1  Apokalipsec15/04, 11:19, от Apokalipsec
[Z] обновите 15/04/2019  1  CAMCOH15/04, 11:19, тема закрыта
[Z] Куплю 10 еун на счет по 118к 15/04/2019  2  Виталий 00715/04, 11:02, тема закрыта
[любой] Куплю 50 EUN по 116к в любом виде 15/04/2019  1  Жонег15/04, 11:01, от Жонег
[G] Обновлю стакан 90к., любой арт по 117.5к. 15/04/2019  1  GRW15/04, 11:00, от GRW
[Z] Вам брелок (65к), стакан (90к) 15/04/2019  1  --ParaZit--15/04, 10:59, от --ParaZit--
[G/Z] продам еуны на счет по 124к 15/04/2019  1  Branderbyrg15/04, 10:58, от Branderbyrg
[Z] обновлю по 117 15/04/2019  1  chikson15/04, 10:51, от chikson
[G] куплю еун по 122 артами за чистый (не лом) 15/04/2019  1  bobaZ15/04, 10:45, от bobaZ
[G] Нужно обновить Карманный фонарь 15/04/2019  1  MAXI-mka15/04, 10:41, от MAXI-mka
[GZ] постоянно покупаю еуны до 124к 15/04/2019  1  _ChpokeR_15/04, 10:30, от _ChpokeR_
[Z] Обновите стакан, пожалуйста 15/04/2019  1  ImN0tHuman15/04, 10:27, от ImN0tHuman
[Z] Куплю 7 EUN на счёт по 114к 15/04/2019  1  26 rus15/04, 10:24, от 26 rus
[Z] обновить мне брелок 15/04/2019  1  robinbobbin15/04, 10:15, от robinbobbin
[Z] продам 10 еун на счет по 115к 15/04/2019  1  DODICCCC15/04, 10:13, тема закрыта
[G/Z] продам любой новый арт по 117к за еун. G обновлю по 116к 15/04/2019  1  ki13r15/04, 10:02, от ki13r
[G] Обновлю до 5 еун по 115 15/04/2019  1  Old-Believer15/04, 09:59, от Old-Believer
[G] куплю лом по 116к, на счёт 115к 15/04/2019  2  Soloveeey15/04, 09:39, тема закрыта
[G] продам 69 еун по 118к 15/04/2019  1  ant00715/04, 09:33, от ant007
[G] Обновите стакан 75к 15/04/2019  1  XoXoL BrOtHeRs15/04, 09:03, от XoXoL BrOtHeRs
[G,Z] Обновлю до 5 еун по 116к 15/04/2019  1  Элвин15/04, 08:33, от Элвин
[G] Продам 1-5 ЕUN на счёт по 123к 15/04/2019  1  чегеварыч15/04, 08:18, от чегеварыч
[Z],[G] продам и обновлю арты 15/04/2019  1  FrankinShtein15/04, 08:12, от FrankinShtein
[Z] Куплю EUN-лом/счет/новые арты, обновлю по 119к 15/04/2019  1  pavelsol15/04, 08:05, тема закрыта
[G] продам 27 еун по 119 15/04/2019  1  Skyline RB2015/04, 07:04, тема закрыта
[GZ] Продам новые Ботинки Sands Specops по 117к 15/04/2019  1  ЗКВ15/04, 06:56, тема закрыта
[G] продам стакан новый 1100к 15/04/2019  1  хичкок15/04, 06:26, от хичкок
[Z] Обновлю на 9 еун по 118К 15/04/2019  2  M1RACLE15/04, 06:12, от M1RACLE
[G] обновлю до 5 еун по 115к 15/04/2019  1  (Конкурент)15/04, 06:11, от (Конкурент)
[G] куплю много EUN-счет/лом до 118, арты до 122, стакан 1070к 15/04/2019  1  _Telo_15/04, 05:33, от _Telo_
[G] Обновлю брелок 55к 15/04/2019  1  qwerty_11115/04, 04:36, от qwerty_111
[G] куплю еун по 115/арты до 125 за чистый 15/04/2019  1  ~#MaxiMka#~15/04, 04:36, от ~#MaxiMka#~
[G] продам 10 еун на счет 15/04/2019  3  Va FreZonN15/04, 04:29, от Va FreZonN
[G/Z] продам/обновлю ВССК "Выхлоп"IRGS-1 и другое внутри 15/04/2019  1  Rodnichek15/04, 02:03, от Rodnichek

«334533463347334833493350335133523353»

Искать в этом разделе:
© 2003—2026 GWars.io